Location: Unspecified
(0.0000°N, 0.0000°E)
Time: 22:21:40
(UTC+00:00)

AD-A Canister/Altair 2 - Visible Passes

Search period start: 29 April 2025 00:00
Search period end: 09 May 2025 00:00
Orbit: 593 x 2296 km, 78.6° (Epoch: 28 April)

Date Brightness Start Highest point End Pass type
(mag) Time Alt. Az. Time Alt. Az. Time Alt. Az.
29 Apr 9.1 19:46:20 10° S 19:59:42 88° E 20:11:16 10° N visible
29 Apr 11.0 21:48:09 10° WSW 21:55:08 16° W 22:01:44 10° NW visible
30 Apr 9.4 18:44:38 10° SSE 18:56:46 43° E 19:07:24 10° NNE visible
30 Apr 10.1 20:40:47 10° SSW 20:52:44 42° W 21:03:14 10° NNW visible
01 May 9.1 19:36:50 10° S 19:50:11 86° W 20:01:29 10° N visible
01 May 11.2 21:39:53 10° WSW 21:45:30 14° W 21:50:49 10° WNW visible
02 May 9.4 18:34:53 10° SSE 18:47:16 46° E 18:57:50 10° NNE visible
02 May 10.2 20:31:35 10° SSW 20:43:08 38° W 20:53:10 10° NNW visible
03 May 9.2 19:27:22 10° S 19:40:39 80° W 19:51:39 10° N visible
03 May 11.3 21:32:11 10° WSW 21:35:50 12° W 21:39:20 10° WNW visible
04 May 9.3 18:25:12 10° S 18:37:45 50° E 18:48:12 10° NNE visible
04 May 10.4 20:22:27 10° SW 20:33:31 34° W 20:43:02 10° NNW visible
05 May 9.3 19:17:56 10° SSW 19:31:05 74° W 19:41:46 10° N visible
06 May 9.2 18:15:33 10° S 18:28:13 54° E 18:38:32 10° NNE visible
06 May 10.5 20:13:24 10° SW 20:23:52 30° W 20:32:50 10° NNW visible
07 May 9.4 19:08:33 10° SSW 19:21:31 68° W 19:31:50 10° N visible
08 May 9.2 18:05:56 10° S 18:18:41 59° E 18:28:48 10° NNE visible
08 May 10.7 20:04:24 10° SW 20:14:11 27° W 20:22:32 10° NW visible
